TimeCDT,TemperatureF,Dew PointF,Humidity,Sea Level PressureIn,VisibilityMPH,Wind Direction,Wind SpeedMPH,Gust SpeedMPH,PrecipitationIn,Events,Conditions,WindDirDegrees,DateUTC
12:15 AM,58.6,55.2,88,30.24,10.0,Calm,Calm,-,N/A,,Unknown,0,2013-05-14 05:15:00
12:35 AM,58.1,54.7,88,30.23,10.0,Calm,Calm,-,N/A,,Unknown,0,2013-05-14 05:35:00
12:55 AM,57.6,54.1,88,30.23,10.0,Calm,Calm,-,N/A,,Unknown,0,2013-05-14 05:55:00
1:15 AM,57.4,54.3,90,30.24,10.0,Calm,Calm,-,N/A,,Unknown,0,2013-05-14 06:15:00
1:35 AM,57.2,54.0,89,30.24,10.0,Calm,Calm,-,N/A,,Unknown,0,2013-05-14 06:35:00
1:55 AM,57.2,53.8,88,30.24,10.0,Calm,Calm,-,N/A,,Unknown,0,2013-05-14 06:55:00
2:15 AM,56.5,53.1,88,30.23,10.0,Calm,Calm,-,N/A,,Clear,0,2013-05-14 07:15:00
2:35 AM,56.3,53.1,89,30.23,10.0,Calm,Calm,-,N/A,,Clear,0,2013-05-14 07:35:00
2:55 AM,55.8,52.9,90,30.23,10.0,Calm,Calm,-,N/A,,Clear,0,2013-05-14 07:55:00
3:15 AM,55.4,52.7,91,30.23,10.0,Calm,Calm,-,N/A,,Clear,0,2013-05-14 08:15:00
3:35 AM,55.0,51.8,89,30.23,10.0,Calm,Calm,-,N/A,,Clear,0,2013-05-14 08:35:00
3:55 AM,55.0,51.8,89,30.23,10.0,Calm,Calm,-,N/A,,Unknown,0,2013-05-14 08:55:00
4:15 AM,54.9,51.8,89,30.23,10.0,Calm,Calm,-,N/A,,Unknown,0,2013-05-14 09:15:00
4:35 AM,54.7,51.8,90,30.23,10.0,Calm,Calm,-,N/A,,Unknown,0,2013-05-14 09:35:00
4:55 AM,54.3,51.1,89,30.23,10.0,Calm,Calm,-,N/A,,Unknown,0,2013-05-14 09:55:00
5:15 AM,54.1,51.1,89,30.23,10.0,Calm,Calm,-,N/A,,Unknown,0,2013-05-14 10:15:00
5:35 AM,53.8,51.1,91,30.24,10.0,Calm,Calm,-,N/A,,Unknown,0,2013-05-14 10:35:00
5:55 AM,54.1,51.1,89,30.24,10.0,Calm,Calm,-,N/A,,Unknown,0,2013-05-14 10:55:00
6:15 AM,53.8,50.9,90,30.25,10.0,Calm,Calm,-,N/A,,Unknown,0,2013-05-14 11:15:00
6:35 AM,54.3,51.3,89,30.26,10.0,Calm,Calm,-,N/A,,Unknown,0,2013-05-14 11:35:00
6:55 AM,55.4,52.0,88,30.27,10.0,Calm,Calm,-,N/A,,Unknown,0,2013-05-14 11:55:00
7:15 AM,57.4,52.9,85,30.27,10.0,Calm,Calm,-,N/A,,Clear,0,2013-05-14 12:15:00
7:35 AM,59.9,54.0,81,30.28,10.0,Calm,Calm,-,N/A,,Clear,0,2013-05-14 12:35:00
7:55 AM,62.1,55.2,78,30.28,10.0,Calm,Calm,-,N/A,,Clear,0,2013-05-14 12:55:00
8:15 AM,64.4,55.8,73,30.28,10.0,Calm,Calm,-,N/A,,Clear,0,2013-05-14 13:15:00
8:35 AM,66.0,56.5,71,30.28,10.0,Calm,Calm,-,N/A,,Clear,0,2013-05-14 13:35:00
8:55 AM,68.0,57.9,70,30.29,10.0,Calm,Calm,-,N/A,,Clear,0,2013-05-14 13:55:00
9:15 AM,70.5,58.8,66,30.29,10.0,Calm,Calm,-,N/A,,Clear,0,2013-05-14 14:15:00
9:35 AM,72.7,58.1,60,30.29,10.0,Calm,Calm,-,N/A,,Clear,0,2013-05-14 14:35:00
9:55 AM,74.5,57.0,54,30.30,10.0,Calm,Calm,-,N/A,,Clear,0,2013-05-14 14:55:00
10:15 AM,75.7,56.1,50,30.30,10.0,Calm,Calm,-,N/A,,Clear,0,2013-05-14 15:15:00
10:35 AM,77.2,54.0,44,30.30,10.0,WSW,3.5,-,N/A,,Clear,240,2013-05-14 15:35:00
10:55 AM,77.9,54.0,43,30.30,10.0,SW,3.5,-,N/A,,Clear,220,2013-05-14 15:55:00
11:15 AM,79.0,54.0,42,30.30,10.0,SW,5.8,-,N/A,,Clear,230,2013-05-14 16:15:00
11:35 AM,79.3,52.7,39,30.30,10.0,West,5.8,-,N/A,,Clear,260,2013-05-14 16:35:00
11:55 AM,80.6,52.7,38,30.29,10.0,Calm,Calm,-,N/A,,Clear,0,2013-05-14 16:55:00
12:15 PM,80.8,51.4,36,30.29,10.0,WSW,5.8,-,N/A,,Clear,250,2013-05-14 17:15:00
12:35 PM,81.7,50.9,34,30.28,10.0,WSW,9.2,-,N/A,,Clear,240,2013-05-14 17:35:00
1:15 PM,82.4,51.4,34,30.26,10.0,WSW,5.8,-,N/A,,Clear,250,2013-05-14 18:15:00
1:35 PM,82.6,51.1,33,30.25,10.0,SW,6.9,-,N/A,,Clear,230,2013-05-14 18:35:00
1:55 PM,83.1,51.3,33,30.24,10.0,Calm,Calm,-,N/A,,Clear,0,2013-05-14 18:55:00
2:15 PM,84.0,49.5,30,30.23,10.0,WNW,5.8,-,N/A,,Clear,300,2013-05-14 19:15:00
2:35 PM,84.0,50.4,31,30.22,10.0,Calm,Calm,-,N/A,,Clear,0,2013-05-14 19:35:00
2:55 PM,84.6,49.6,30,30.21,10.0,West,5.8,-,N/A,,Clear,260,2013-05-14 19:55:00
3:15 PM,84.4,49.1,29,30.21,10.0,SSW,3.5,-,N/A,,Clear,210,2013-05-14 20:15:00
3:35 PM,84.9,50.2,30,30.20,10.0,SSW,4.6,-,N/A,,Clear,200,2013-05-14 20:35:00
3:55 PM,84.7,49.8,30,30.19,10.0,South,4.6,-,N/A,,Clear,170,2013-05-14 20:55:00
4:15 PM,84.9,50.9,31,30.19,10.0,SW,8.1,-,N/A,,Clear,230,2013-05-14 21:15:00
4:35 PM,84.6,50.2,30,30.18,10.0,WNW,4.6,-,N/A,,Clear,300,2013-05-14 21:35:00
4:55 PM,84.6,50.2,30,30.18,10.0,WSW,5.8,-,N/A,,Clear,250,2013-05-14 21:55:00
5:15 PM,84.4,49.8,30,30.18,10.0,SW,5.8,-,N/A,,Clear,220,2013-05-14 22:15:00
5:35 PM,84.2,49.6,30,30.18,10.0,WSW,4.6,-,N/A,,Clear,240,2013-05-14 22:35:00
5:55 PM,83.7,49.8,31,30.17,10.0,SW,4.6,-,N/A,,Clear,220,2013-05-14 22:55:00
6:15 PM,83.1,50.2,32,30.17,10.0,SSW,5.8,-,N/A,,Clear,200,2013-05-14 23:15:00
6:35 PM,82.4,50.2,33,30.17,10.0,SW,6.9,-,N/A,,Clear,220,2013-05-14 23:35:00
6:55 PM,81.5,51.1,35,30.17,10.0,SSW,6.9,-,N/A,,Clear,210,2013-05-14 23:55:00
7:15 PM,79.9,51.8,38,30.17,10.0,SSW,8.1,-,N/A,,Clear,200,2013-05-15 00:15:00
8:15 PM,74.8,52.9,46,30.17,10.0,SSW,5.8,-,N/A,,Clear,200,2013-05-15 01:15:00
8:35 PM,74.5,52.7,46,30.18,10.0,SSW,8.1,-,N/A,,Unknown,200,2013-05-15 01:35:00
8:55 PM,73.8,54.0,50,30.18,10.0,SSW,6.9,-,N/A,,Unknown,200,2013-05-15 01:55:00
9:15 PM,72.7,55.2,54,30.19,10.0,South,8.1,-,N/A,,Clear,190,2013-05-15 02:15:00
9:35 PM,72.3,55.9,56,30.19,10.0,South,5.8,-,N/A,,Clear,190,2013-05-15 02:35:00
9:55 PM,71.1,56.7,60,30.20,10.0,South,8.1,-,N/A,,Clear,190,2013-05-15 02:55:00
10:15 PM,70.5,57.0,62,30.21,10.0,SSW,6.9,-,N/A,,Clear,200,2013-05-15 03:15:00
10:35 PM,69.8,58.1,66,30.21,10.0,SSW,6.9,-,N/A,,Clear,210,2013-05-15 03:35:00
10:55 PM,68.4,58.6,71,30.21,10.0,SSW,4.6,-,N/A,,Clear,210,2013-05-15 03:55:00
11:15 PM,68.2,58.6,71,30.20,10.0,SW,4.6,-,N/A,,Clear,220,2013-05-15 04:15:00
11:35 PM,67.5,58.3,72,30.20,10.0,SW,3.5,-,N/A,,Unknown,220,2013-05-15 04:35:00
11:55 PM,67.1,58.3,73,30.20,10.0,Calm,Calm,-,N/A,,Unknown,0,2013-05-15 04:55:00